Regional Weather Roundup
Issued by NWS State College, PA

Home | Current Version | Previous Version | Text Only | Print | Product List | Glossary On
Versions: 1 2 3 4 5 6 7 8 9 10 11 12 13 14 15 16 17 18 19 20 21 22 23 24 25 26 27 28 29 30 31 32 33 34 35 36 37 38 39 40 41 42 43 44 45 46 47 48 49 50
007
ASUS41 KCTP 221210
RWRCTP

REGIONAL WEATHER ROUNDUP
NATIONAL WEATHER SERVICE STATE COLLEGE PA
800 AM EDT SUN SEP 22 2019

Note: "fair" indicates few or no clouds below 12,000 feet with no
significant weather and/or obstructions to visibility.

* = STATION THAT DOES NOT REPORT PRECIPITATION /E.G. RAIN...SNOW...ETC/
    THUNDER OR FOG.

PAZ002>004-007>009-013>016-020>023-029>032-221300-
WESTERN PENNSYLVANIA

CITY           SKY/WX    TMP DP  RH WIND       PRES   REMARKS
ERIE           FAIR      73  65  75 S8        30.10S
MEADVILLE      FAIR      68  64  87 S6        30.16S
FRANKLIN*      FAIR      65  65 100 S7        30.18  FOG
NEW CASTLE     FAIR      66  64  93 CALM      30.18S FOG
BEAVER COUNTY  FAIR      66  65  95 S3        30.18  FOG
BUTLER*        FAIR      65  64  97 CALM      30.19S FOG
PITTSBURGH INT FAIR      65  62  90 CALM      30.18S
PITTSBURGH     FAIR      66  64  93 S7        30.18R FOG
INDIANA*       CLEAR     63  63 100 CALM      30.23S FOG
LATROBE        CLEAR     63  63 100 CALM      30.20R FOG
WASHINGTON CO* FAIR      64  63  96 CALM      30.22R
$$

PAZ004>006-010>012-017>019-024>028-033>037-041-042-045-046-049>053-221300-
CENTRAL PENNSYLVANIA

CITY           SKY/WX    TMP DP  RH WIND       PRES   REMARKS
BRADFORD       FAIR      65  62  90 VRB3      30.20S FOG
DUBOIS         FOG       59  58  96 CALM      30.19S VSB 3/4
CLEARFIELD     FOG       60  59  96 CALM      30.21F VSB<1/4
JOHNSTOWN      FAIR      65  61  87 SW5       30.24S
ALTOONA        FAIR      64  61  90 CALM      30.21S FOG
STATE COLLEGE  SUNNY     61  61 100 CALM      30.20S
WILLIAMSPORT   FAIR      59  55  87 CALM      30.17F
SELINSGROVE    FAIR      57  56  96 NW3       30.19R FOG
FT INDIANTOWN  NOT AVBL
CAPITAL CITY   FAIR      66  61  84 CALM      30.18R
HARRISBURG     FAIR      66  60  81 CALM      30.17R
YORK           FAIR      61  57  87 CALM      30.18R
$$

PAZ038>040-043-044-047-048-054-055-060>062-067>071-221300-
EASTERN PENNSYLVANIA

CITY           SKY/WX    TMP DP  RH WIND       PRES   REMARKS
SCRANTON       FAIR      60  54  80 CALM      30.19R
MOUNT POCONO   FAIR      59  57  93 CALM      30.22R
ALLENTOWN      FAIR      59  55  87 CALM      30.18R
QUAKERTOWN*    SUNNY     59  57  94 CALM      30.19R
READING        FAIR      61  60  97 N3        30.17R
LANCASTER      FAIR      63  59  87 W3        30.19R FOG
COATESVILLE    FAIR      64  61  88 CALM      30.20R
POTTSTOWN      FAIR      59  59 100 CALM      30.20R
BLUE BELL      FAIR      60  60  97 CALM      30.19R
DOYLESTOWN     FAIR      60  57  89 CALM      30.18R
WILLOW GROVE   NOT AVBL
NORTH PHILA    FAIR      65  59  81 CALM      30.19R
PHILADELPHIA   FAIR      66  63  90 CALM      30.18R
$$




USA.gov is the U.S. government's official web portal to all federal, state and local government web resources and services.